YUNHAI 1-03

Satellite information

Favourite Embed

Satellite Type and Status

PAYLOADIN ORBIT

Key statistics

Satellite YUNHAI 1-03 at a glance.

Uptime

1081

Days in orbit

Revolutions

≈ 14.3

Per day

Orbit

SSO

Sun Synchronous Orbit

Inclination

98.5

Latest

Satellite identification and parameters

Extended collection of information and parameters for YUNHAI 1-03.

Object identification

Identified? True

Debris? False

Object name: YUNHAI 1-03

International designator: 2022-115A

Object number (NORAD): 53877

Object ID (CCSDS): 53877

Country: PEOPLES REPUBLIC OF CHINA (PRC)

Current information (Y/N): Y

RCS size: LARGE

Orbital parameters

Period: 100.502 minutes

Inclination: 98.5432 deg

SMA: 7160.5 km

Apoapsis: 785.376 km

Periapsis: 779.353 km

RAAN: 244.2681 deg

Eccentricy: 0.00042054

Argument of periapsis: 170.1574 deg

Mean anomaly: 189.9693 deg

Mean motion: 14.32807287 rev/day

Mean motion (dot): 0.00000495 rev/day2

B* drag term: 0.00019748214 1/REarth

Two-line elements (TLE)

Creation date: Sept. 4, 2025, 10:13 a.m.

Reference frame: TEME

Reference center: EARTH

Epoch: Sept. 4, 2025, 6:06 a.m. UTC

TLE line 0: 0 YUNHAI 1-03

TLE line 1: 1 53877U 22115A 25247.25427745 .00000495 00000-0 19748-3 0 9997

TLE line 2: 2 53877 98.5432 244.2681 0004205 170.1574 189.9693 14.32807287154575

Live tracking on map

Real-time ground track for satellite YUNHAI 1-03.

In-orbit conjunctions

There are no conjunctions computed for YUNHAI 1-03, at the moment. Check back to stay up to date, as we update our databases every day.

Go to all conjunctions

Associated space launch

The Yunhai-1 satellite is designed for detecting environmental elements in the atmosphere and ocean, the space environment, disaster prevention and reduction, and scientific experimentation. It is made by the Shanghai Institute of Spaceflight Technology.

YUNHAI 1-03 was lifted into orbit during the mission ‘Long March 2D | Yunhai-1-03’, on board a Long March 2D space rocket.

The launch took place on Sept. 20, 2022, 11:15 p.m. from Launch Area 4 (SLS-2 / 603).

For more information about the launch, click the button.

Launch to space Long March 2D | Yunhai-1-03
Long March 2D | Yunhai-1-03

Agency: N/A

Status: Launch Successful

Launch date: Sept. 20, 2022, 11:15 p.m. UTC

Rocket: Long March 2D

Launch pad: Launch Area 4 (SLS-2 / 603)

Location: Jiuquan Satellite Launch Center, People's Republic of China

...

Latest news about this satellite

There are no fresh news available about this satellite. Check back as we update our databases every day.


Newsletter sign-up

Weekly statistics, charts and insights to help you stay on top of the space industry.